Back to catalog

FLOCK 4BE 18

AliveScienceSSO
NORAD 60480·PAYLOAD·🇺🇸 United States

Launched Aug 16, 2024 from Vandenberg Space Force Base

Loading…

Next Passes (next 24 hours)

TLE

FreshSource: CelesTrak SupGP

Epoch: Sep 14, 2026, 06:45 UTC

1 60480C 24149AX  26257.28133102  .00042934  00000+0  91530-3 0  2579
2 60480  97.3688 342.0957 0002317 289.4923 315.2138 15.44904857    12

Track FLOCK 4BE 18 in real time with AllMySat

Download on the App Store